DateTimeUTC,F1_A11,F1_S11,BsB_S11,BsG_S11,BsR_S11,BbsB_S11,BbsG_S11,BbsR_S11,BaB_A11,BaG_A11,BaR_A11,Tu_S11,T_S11,Uu_S11,U_S11,P_S11,T1_A11
2021-08-24T07:00:00Z,00000200,21000000,,,,,,,0000.07,-000.28,0000.23,17.9,25.2,,00.0,0680.5,30.9
2021-08-24T07:01:00Z,00000200,21000000,,,,,,,0000.58,0001.05,0000.17,17.9,25.2,,00.0,0680.5,30.9
2021-08-24T07:02:00Z,00000200,21000000,,,,,,,0000.44,0000.21,0000.55,17.9,25.2,,00.0,0680.5,30.9
2021-08-24T07:03:00Z,00000200,61000000,,,,,,,-000.25,0000.02,0000.02,17.9,25.2,,00.0,0680.6,30.9
2021-08-24T07:04:00Z,00000200,41000000,0000.31,0000.09,-000.17,0000.66,0000.33,0000.26,0000.30,-000.00,-000.28,18.2,25.0,00.3,00.2,0681.6,31.0
2021-08-24T07:05:00Z,00000200,01000000,0000.33,0000.02,0000.22,-000.50,0000.03,0000.36,-000.13,-000.12,-000.11,18.3,25.0,00.3,00.2,0681.7,31.0
2021-08-24T07:06:00Z,00000200,01000000,0000.75,0000.02,0000.01,0000.16,0000.34,0000.42,0000.07,0000.26,0000.20,18.4,25.0,00.3,00.2,0681.7,30.9
2021-08-24T07:07:00Z,00000200,01000000,0000.42,0000.09,0000.25,0000.33,0000.03,0000.22,0000.33,0000.12,0000.26,18.4,25.0,00.4,00.3,0681.7,30.9
2021-08-24T07:08:00Z,00000200,01000000,-000.20,0000.07,0000.11,0000.14,0000.12,0000.14,0000.15,0000.06,-000.01,18.3,25.0,00.5,00.3,0681.7,30.9
2021-08-24T07:09:00Z,00000200,01000000,-000.25,-000.12,-000.37,0000.14,0000.07,-000.03,0000.06,-000.02,0000.20,18.3,24.9,00.7,00.5,0681.7,30.9
2021-08-24T07:10:00Z,00000200,01000000,0000.17,-000.32,-000.16,0000.31,-000.07,0000.18,0000.45,0000.38,-000.07,18.2,24.9,00.6,00.4,0681.7,30.9
2021-08-24T07:11:00Z,00000200,01000000,0000.10,-000.26,-000.11,0000.91,0000.12,0000.08,0000.08,0000.05,0000.03,18.2,24.9,00.8,00.5,0681.7,30.9
2021-08-24T07:12:00Z,00000200,01000000,0000.45,-000.00,0000.12,0000.53,0000.12,0000.29,-000.17,-000.25,-000.15,18.1,24.8,00.8,00.5,0681.7,30.9
2021-08-24T07:13:00Z,00000200,01000000,0000.03,0000.01,-000.01,0000.31,0000.13,0000.02,0000.34,0000.54,0000.31,18.1,24.8,00.7,00.5,0681.7,30.9
2021-08-24T07:14:00Z,00000200,01000000,0000.14,0000.07,0000.10,-000.26,-000.02,0000.02,-000.12,-000.09,-000.14,18.1,24.8,00.8,00.5,0681.7,30.9
2021-08-24T07:15:00Z,00000200,01000000,0000.54,0000.41,0000.17,0000.50,0000.38,0000.24,-000.04,0000.14,-000.00,18.0,24.8,00.9,00.6,0681.7,30.9
2021-08-24T07:16:00Z,00000200,01000000,-000.11,0000.22,0000.12,0000.51,0000.20,0000.09,0000.27,-000.04,0000.42,18.0,24.8,00.9,00.6,0681.7,30.9
2021-08-24T07:17:00Z,00000200,01000000,0000.29,0000.09,0000.01,0000.44,0000.03,0000.07,0000.44,0000.42,0000.25,18.0,24.7,00.9,00.6,0681.8,30.9
2021-08-24T07:18:00Z,00000200,01000000,-000.18,-000.10,0000.11,0000.09,0000.21,0000.18,0000.18,0000.32,0000.40,18.1,24.8,00.9,00.6,0681.8,30.9
2021-08-24T07:19:00Z,00000200,01000000,0000.51,-000.14,0000.31,0000.62,0000.01,0000.40,0000.49,0000.59,0000.29,18.2,24.8,01.0,00.7,0681.8,30.9
2021-08-24T07:20:00Z,00000200,01000000,-000.18,-000.07,-000.12,-000.54,0000.07,0000.03,0000.01,-000.55,-000.02,18.3,24.9,01.2,00.8,0681.8,31.0
2021-08-24T07:21:00Z,00000200,01000000,0000.24,0000.21,-000.16,0000.09,0000.16,-000.20,0000.19,0000.68,0000.14,18.3,24.9,01.1,00.8,0681.8,31.0
2021-08-24T07:22:00Z,00000200,01000000,0000.23,0000.05,0000.16,0000.79,0000.29,0000.12,-000.00,-000.09,-000.15,18.4,24.9,01.2,00.8,0681.8,30.9
2021-08-24T07:23:00Z,00000200,01000000,0000.60,0000.05,0000.09,0000.39,0000.04,0000.11,-000.13,0000.15,-000.35,18.3,24.9,01.2,00.8,0681.8,30.9
2021-08-24T07:24:00Z,00000200,01000000,0000.68,0000.14,0000.10,-000.19,0000.17,0000.32,0000.27,-000.33,0000.31,18.3,24.9,01.1,00.8,0681.8,30.9
2021-08-24T07:25:00Z,00000200,01000000,0000.44,0000.09,0000.20,-000.26,0000.15,0000.44,-000.33,-000.20,-000.41,18.2,24.8,01.2,00.8,0681.8,30.9
2021-08-24T07:26:00Z,00000200,01000000,0000.35,-000.05,0000.35,0000.54,0000.23,0000.01,0000.16,0000.04,0000.40,18.2,24.8,01.2,00.8,0681.8,30.9
2021-08-24T07:27:00Z,00000200,01000000,0000.62,0000.08,-000.03,0000.04,-000.14,0000.35,-000.02,0000.06,-000.53,18.1,24.8,01.2,00.8,0681.8,30.9
2021-08-24T07:28:00Z,00000200,01000000,-000.40,0000.12,0000.46,0000.64,-000.03,0000.04,-000.28,-000.08,0000.35,18.1,24.7,01.1,00.8,0681.8,30.9
2021-08-24T07:29:00Z,00000200,01000000,0000.94,0000.43,-000.13,0000.27,0000.16,0000.07,0000.26,0000.09,-000.01,18.0,24.7,01.3,00.9,0681.8,30.9
2021-08-24T07:30:00Z,00000200,01000000,0000.96,0000.41,-000.07,0000.45,0000.40,0000.32,0000.10,0000.37,0000.21,18.0,24.7,01.2,00.8,0681.7,30.9
2021-08-24T07:31:00Z,00000200,01000000,0000.03,0000.13,0000.22,0000.31,0000.16,0000.28,0000.59,0000.34,0000.31,18.0,24.7,01.3,00.8,0681.7,30.9
2021-08-24T07:32:00Z,00000200,01000000,0001.03,0000.24,0000.30,0000.20,0000.14,0000.20,0000.16,0000.31,0000.13,18.0,24.7,01.3,00.9,0681.7,30.9
2021-08-24T07:33:00Z,00000200,01000000,0000.83,-000.01,0000.20,0000.36,-000.03,0000.10,0000.05,0000.44,0000.33,18.1,24.7,01.3,00.9,0681.7,30.9
2021-08-24T07:34:00Z,00000200,01000000,0000.28,-000.09,-000.01,-000.18,0000.26,-000.02,0000.33,-000.02,0000.04,18.2,24.8,01.4,00.9,0681.6,30.9
2021-08-24T07:35:00Z,00000200,01000000,-000.26,0000.19,0000.40,0000.33,0000.17,0000.37,-000.12,0000.28,0000.20,18.3,24.8,01.3,00.9,0681.6,31.0
2021-08-24T07:36:00Z,00000200,01000000,0000.19,-000.14,0000.06,-000.37,0000.39,-000.17,0000.13,0000.10,0000.29,18.4,24.9,01.3,00.9,0681.6,31.0
2021-08-24T07:37:00Z,00000200,01000000,0000.49,0000.02,-000.13,-000.25,0000.12,0000.17,0000.00,-000.35,-000.30,18.5,24.9,01.3,00.9,0681.7,31.0
2021-08-24T07:38:00Z,00000200,01000000,0000.25,0000.21,-000.07,0000.31,-000.00,-000.06,0000.18,-000.18,-000.16,18.5,24.9,01.3,00.9,0681.7,31.0
2021-08-24T07:39:00Z,00000200,01000000,0000.60,-000.14,0000.16,-000.03,0000.19,0000.41,-000.36,-000.34,-000.26,18.4,24.9,01.2,00.8,0681.6,30.9
2021-08-24T07:40:00Z,00000200,01000000,0000.42,-000.02,0000.06,0000.10,-000.04,0000.18,-000.24,0000.39,0000.13,18.3,24.8,01.4,01.0,0681.6,30.9
2021-08-24T07:41:00Z,00000200,01000000,0000.47,0000.26,-000.10,0000.19,0000.08,0000.23,0000.21,-000.33,0000.00,18.3,24.8,01.3,00.9,0681.6,30.9
2021-08-24T07:42:00Z,00000200,01000000,0000.42,0000.04,-000.05,-000.52,0000.15,0000.17,0000.18,0000.14,-000.19,18.3,24.8,01.3,00.9,0681.6,30.9
2021-08-24T07:43:00Z,00000200,01000000,0000.24,0000.14,0000.10,0000.04,0000.05,0000.26,-000.15,-000.04,0000.31,18.2,24.8,01.4,01.0,0681.6,30.9
2021-08-24T07:44:00Z,00000200,01000000,0000.64,-000.01,0000.23,0000.55,0000.02,0000.03,-000.04,-000.04,-000.32,18.2,24.7,01.5,01.0,0681.6,30.9
2021-08-24T07:45:00Z,00000200,01000000,0000.12,-000.11,-000.09,-000.10,0000.34,0000.14,-000.22,-000.01,0000.03,18.1,24.7,01.4,01.0,0681.7,30.9
2021-08-24T07:46:00Z,00000200,01000000,0000.63,-000.06,-000.10,0000.21,0000.06,0000.07,0000.38,0000.23,0000.05,18.1,24.7,01.4,00.9,0681.7,30.9
2021-08-24T07:47:00Z,00000200,01000000,0000.30,0000.13,0000.05,-000.10,0000.20,0000.10,-000.17,0000.14,0000.06,18.1,24.7,01.3,00.9,0681.8,30.9
2021-08-24T07:48:00Z,00000200,01000000,0000.19,0000.36,-000.04,0000.41,0000.20,0000.18,-000.01,-000.42,0000.10,18.2,24.7,01.2,00.8,0681.8,30.9
2021-08-24T07:49:00Z,00000200,01000000,0000.43,-000.31,0000.05,0000.36,-000.05,0000.18,-000.25,-000.27,-000.29,18.3,24.8,01.2,00.8,0681.8,30.9
2021-08-24T07:50:00Z,00000200,01000000,0000.29,0000.16,0000.02,0000.53,0000.02,0000.17,-000.05,0000.39,0000.10,18.3,24.8,01.1,00.7,0681.8,30.9
2021-08-24T07:51:00Z,00000200,01000000,0000.81,0000.22,-000.20,0000.47,0000.06,0000.15,0000.02,-000.34,-000.35,18.3,24.8,01.0,00.7,0681.8,30.9
2021-08-24T07:52:00Z,00000200,01000000,0000.55,0000.23,0000.22,-000.31,0000.01,0000.32,-000.21,-000.23,0000.18,18.3,24.8,01.1,00.8,0681.8,30.9
2021-08-24T07:53:00Z,00000200,01000000,0000.45,-000.08,-000.12,0000.11,0000.18,0000.22,0000.34,-000.03,-000.26,18.2,24.8,01.1,00.8,0681.7,30.9
2021-08-24T07:54:00Z,00000200,01000000,0000.45,0000.13,0000.26,0000.40,0000.31,0000.36,-000.01,0000.12,0000.24,18.2,24.7,01.2,00.8,0681.7,30.9
2021-08-24T07:55:00Z,00000200,01000000,0000.02,0000.45,0000.06,0000.15,0000.09,0000.15,0000.05,0000.30,0000.08,18.1,24.7,01.2,00.8,0681.7,30.9
2021-08-24T07:56:00Z,00000200,01000000,0000.79,0000.32,-000.37,0000.34,0000.10,-000.09,0000.36,0000.20,0000.39,18.1,24.7,01.2,00.8,0681.8,30.9
2021-08-24T07:57:00Z,00000200,41000000,,,,,,,-000.82,-000.74,-000.60,18.1,24.7,01.2,00.8,0681.8,30.9
2021-08-24T07:58:00Z,00000200,61000000,,,,,,,0000.51,0000.28,0000.01,17.7,24.8,01.0,00.6,0680.8,30.9
2021-08-24T07:59:00Z,00000200,21000000,,,,,,,0000.10,0000.37,-000.10,17.7,24.9,00.9,00.6,0680.7,30.9
